Year,Month,Day,Hour,Minute,Value (Times are PST for temperature in C)
2006,10,17,00,00,8.30
2006,10,17,00,01,8.20
2006,10,17,00,02,8.20
2006,10,17,00,03,8.20
2006,10,17,00,04,8.20
2006,10,17,00,05,8.20
2006,10,17,00,06,8.20
2006,10,17,00,07,8.10
2006,10,17,00,08,8.10
2006,10,17,00,09,8.10
2006,10,17,00,10,8.10
2006,10,17,00,11,8.10
2006,10,17,00,12,8.10
2006,10,17,00,13,8.10
2006,10,17,00,14,8.10
2006,10,17,00,15,8.10
2006,10,17,00,16,8.10
2006,10,17,00,17,8.00
2006,10,17,00,18,8.00
2006,10,17,00,19,8.00
2006,10,17,00,20,8.00
2006,10,17,00,21,7.90
2006,10,17,00,22,7.90
2006,10,17,00,23,7.90
2006,10,17,00,24,7.90
2006,10,17,00,25,7.90
2006,10,17,00,26,7.90
2006,10,17,00,27,7.90
2006,10,17,00,28,7.90
2006,10,17,00,29,7.90
2006,10,17,00,30,7.90
2006,10,17,00,31,7.90
2006,10,17,00,32,7.90
2006,10,17,00,33,7.90
2006,10,17,00,34,7.90
2006,10,17,00,35,7.80
2006,10,17,00,36,7.80
2006,10,17,00,37,7.80
2006,10,17,00,38,7.80
2006,10,17,00,39,7.80
2006,10,17,00,40,7.80
2006,10,17,00,41,7.80
2006,10,17,00,42,7.80
2006,10,17,00,43,7.80
2006,10,17,00,44,7.90
2006,10,17,00,45,7.90
2006,10,17,00,46,7.90
2006,10,17,00,47,7.90
2006,10,17,00,48,7.90
2006,10,17,00,49,7.80
2006,10,17,00,50,7.80
2006,10,17,00,51,7.80
2006,10,17,00,52,7.80
2006,10,17,00,53,7.80
2006,10,17,00,54,7.80
2006,10,17,00,55,7.80
2006,10,17,00,56,7.80
2006,10,17,00,57,7.80
2006,10,17,00,58,7.80
2006,10,17,00,59,7.80
2006,10,17,01,00,7.80
2006,10,17,01,01,7.70
2006,10,17,01,02,7.70
2006,10,17,01,03,7.70
2006,10,17,01,04,7.70
2006,10,17,01,05,7.70
2006,10,17,01,06,7.70
2006,10,17,01,07,7.70
2006,10,17,01,08,7.70
2006,10,17,01,09,7.70
2006,10,17,01,10,7.80
2006,10,17,01,11,7.80
2006,10,17,01,12,7.80
2006,10,17,01,13,7.80
2006,10,17,01,14,7.80
2006,10,17,01,15,7.80
2006,10,17,01,16,7.80
2006,10,17,01,17,7.80
2006,10,17,01,18,7.80
2006,10,17,01,19,7.80
2006,10,17,01,20,7.80
2006,10,17,01,21,7.80
2006,10,17,01,22,7.80
2006,10,17,01,23,7.80
2006,10,17,01,24,7.80
2006,10,17,01,25,7.70
2006,10,17,01,26,7.70
2006,10,17,01,27,7.70
2006,10,17,01,28,7.70
2006,10,17,01,29,7.80
2006,10,17,01,30,7.80
2006,10,17,01,31,7.80
2006,10,17,01,32,8.00
2006,10,17,01,33,8.00
2006,10,17,01,34,8.00
2006,10,17,01,35,8.10
2006,10,17,01,36,8.10
2006,10,17,01,37,8.10
2006,10,17,01,38,8.10
2006,10,17,01,39,8.00
2006,10,17,01,40,8.00
2006,10,17,01,41,8.00
2006,10,17,01,42,8.00
2006,10,17,01,43,7.90
2006,10,17,01,44,7.90
2006,10,17,01,45,7.90
2006,10,17,01,46,7.90
2006,10,17,01,47,7.80
2006,10,17,01,48,7.80
2006,10,17,01,49,7.80
2006,10,17,01,50,7.70
2006,10,17,01,51,7.70
2006,10,17,01,52,7.70
2006,10,17,01,53,7.60
2006,10,17,01,54,7.60
2006,10,17,01,55,7.60
2006,10,17,01,56,7.60
2006,10,17,01,57,7.50
2006,10,17,01,58,7.50
2006,10,17,01,59,7.40
2006,10,17,02,00,7.40
2006,10,17,02,01,7.30
2006,10,17,02,02,7.30
2006,10,17,02,03,7.30
2006,10,17,02,04,7.30
2006,10,17,02,05,7.30
2006,10,17,02,06,7.30
2006,10,17,02,07,7.30
2006,10,17,02,08,7.30
2006,10,17,02,09,7.40
2006,10,17,02,10,7.40
2006,10,17,02,11,7.40
2006,10,17,02,12,7.40
2006,10,17,02,13,7.40
2006,10,17,02,14,7.40
2006,10,17,02,15,7.40
2006,10,17,02,16,7.40
2006,10,17,02,17,7.40
2006,10,17,02,18,7.40
2006,10,17,02,19,7.40
2006,10,17,02,20,7.40
2006,10,17,02,21,7.40
2006,10,17,02,22,7.30
2006,10,17,02,23,7.30
2006,10,17,02,24,7.30
2006,10,17,02,25,7.30
2006,10,17,02,26,7.30
2006,10,17,02,27,7.20
2006,10,17,02,28,7.20
2006,10,17,02,29,7.20
2006,10,17,02,30,7.20
2006,10,17,02,31,7.20
2006,10,17,02,32,7.20
2006,10,17,02,33,7.20
2006,10,17,02,34,7.20
2006,10,17,02,35,7.30
2006,10,17,02,36,7.30
2006,10,17,02,37,7.50
2006,10,17,02,38,7.70
2006,10,17,02,39,7.90
2006,10,17,02,40,8.10
2006,10,17,02,41,8.20
2006,10,17,02,42,8.30
2006,10,17,02,43,8.50
2006,10,17,02,44,8.60
2006,10,17,02,45,8.70
2006,10,17,02,46,8.90
2006,10,17,02,47,9.10
2006,10,17,02,48,9.20
2006,10,17,02,49,9.30
2006,10,17,02,50,9.30
2006,10,17,02,51,9.40
2006,10,17,02,52,9.50
2006,10,17,02,53,9.50
2006,10,17,02,54,9.50
2006,10,17,02,55,9.60
2006,10,17,02,56,9.60
2006,10,17,02,57,9.60
2006,10,17,02,58,9.60
2006,10,17,02,59,9.60
2006,10,17,03,00,9.60
2006,10,17,03,01,9.60
2006,10,17,03,02,9.50
2006,10,17,03,03,9.50
2006,10,17,03,04,9.50
2006,10,17,03,05,9.40
2006,10,17,03,06,9.40
2006,10,17,03,07,9.40
2006,10,17,03,08,9.50
2006,10,17,03,09,9.50
2006,10,17,03,10,9.50
2006,10,17,03,11,9.60
2006,10,17,03,12,9.60
2006,10,17,03,13,9.60
2006,10,17,03,14,9.60
2006,10,17,03,15,9.60
2006,10,17,03,16,9.70
2006,10,17,03,17,9.70
2006,10,17,03,18,9.70
2006,10,17,03,19,9.70
2006,10,17,03,20,9.80
2006,10,17,03,21,9.90
2006,10,17,03,22,9.90
2006,10,17,03,23,9.90
2006,10,17,03,24,9.90
2006,10,17,03,25,9.90
2006,10,17,03,26,9.90
2006,10,17,03,27,9.90
2006,10,17,03,28,9.90
2006,10,17,03,29,9.90
2006,10,17,03,30,9.90
2006,10,17,03,31,9.90
2006,10,17,03,32,9.80
2006,10,17,03,33,9.80
2006,10,17,03,34,9.80
2006,10,17,03,35,9.80
2006,10,17,03,36,9.70
2006,10,17,03,37,9.70
2006,10,17,03,38,9.70
2006,10,17,03,39,9.60
2006,10,17,03,40,9.60
2006,10,17,03,41,9.50
2006,10,17,03,42,9.50
2006,10,17,03,43,9.50
2006,10,17,03,44,9.40
2006,10,17,03,45,9.40
2006,10,17,03,46,9.30
2006,10,17,03,47,9.30
2006,10,17,03,48,9.30
2006,10,17,03,49,9.30
2006,10,17,03,50,9.30
2006,10,17,03,51,9.30
2006,10,17,03,52,9.20
2006,10,17,03,53,9.20
2006,10,17,03,54,9.20
2006,10,17,03,55,9.20
2006,10,17,03,56,9.20
2006,10,17,03,57,9.20
2006,10,17,03,58,9.30
2006,10,17,03,59,9.30
2006,10,17,04,00,9.30
2006,10,17,04,01,9.30
2006,10,17,04,02,9.30
2006,10,17,04,03,9.30
2006,10,17,04,04,9.30
2006,10,17,04,05,9.30
2006,10,17,04,06,9.30
2006,10,17,04,07,9.30
2006,10,17,04,08,9.30
2006,10,17,04,09,9.30
2006,10,17,04,10,9.30
2006,10,17,04,11,9.30
2006,10,17,04,12,9.30
2006,10,17,04,13,9.30
2006,10,17,04,14,9.30
2006,10,17,04,15,9.30
2006,10,17,04,16,9.30
2006,10,17,04,17,9.30
2006,10,17,04,18,9.30
2006,10,17,04,19,9.30
2006,10,17,04,20,9.30
2006,10,17,04,21,9.30
2006,10,17,04,22,9.30
2006,10,17,04,23,9.30
2006,10,17,04,24,9.30
2006,10,17,04,25,9.40
2006,10,17,04,26,9.40
2006,10,17,04,27,9.40
2006,10,17,04,28,9.40
2006,10,17,04,29,9.40
2006,10,17,04,30,9.40
2006,10,17,04,31,9.40
2006,10,17,04,32,9.40
2006,10,17,04,33,9.40
2006,10,17,04,34,9.40
2006,10,17,04,35,9.40
2006,10,17,04,36,9.40
2006,10,17,04,37,9.40
2006,10,17,04,38,9.40
2006,10,17,04,39,9.40
2006,10,17,04,40,9.30
2006,10,17,04,41,9.30
2006,10,17,04,42,9.30
2006,10,17,04,43,9.30
2006,10,17,04,44,9.20
2006,10,17,04,45,9.20
2006,10,17,04,46,9.20
2006,10,17,04,47,9.10
2006,10,17,04,48,9.10
2006,10,17,04,49,9.10
2006,10,17,04,50,9.10
2006,10,17,04,51,9.10
2006,10,17,04,52,9.10
2006,10,17,04,53,9.10
2006,10,17,04,54,9.00
2006,10,17,04,55,9.00
2006,10,17,04,56,9.00
2006,10,17,04,57,9.00
2006,10,17,04,58,9.00
2006,10,17,04,59,9.10
2006,10,17,05,00,9.10
2006,10,17,05,01,9.10
2006,10,17,05,02,9.10
2006,10,17,05,03,9.10
2006,10,17,05,04,9.10
2006,10,17,05,05,9.10
2006,10,17,05,06,9.00
2006,10,17,05,07,9.00
2006,10,17,05,08,9.00
2006,10,17,05,09,9.00
2006,10,17,05,10,9.00
2006,10,17,05,11,9.00
2006,10,17,05,12,9.00
2006,10,17,05,13,9.00
2006,10,17,05,14,9.00
2006,10,17,05,15,9.00
2006,10,17,05,16,9.00
2006,10,17,05,17,9.00
2006,10,17,05,18,9.00
2006,10,17,05,19,8.90
2006,10,17,05,20,8.90
2006,10,17,05,21,8.90
2006,10,17,05,22,8.90
2006,10,17,05,23,8.90
2006,10,17,05,24,8.90
2006,10,17,05,25,8.90
2006,10,17,05,26,8.90
2006,10,17,05,27,8.90
2006,10,17,05,28,8.90
2006,10,17,05,29,8.90
2006,10,17,05,30,8.90
2006,10,17,05,31,8.90
2006,10,17,05,32,8.90
2006,10,17,05,33,8.90
2006,10,17,05,34,8.90
2006,10,17,05,35,8.90
2006,10,17,05,36,8.90
2006,10,17,05,37,8.90
2006,10,17,05,38,8.90
2006,10,17,05,39,8.80
2006,10,17,05,40,8.80
2006,10,17,05,41,8.80
2006,10,17,05,42,8.70
2006,10,17,05,43,8.70
2006,10,17,05,44,8.70
2006,10,17,05,45,8.60
2006,10,17,05,46,8.60
2006,10,17,05,47,8.60
2006,10,17,05,48,8.60
2006,10,17,05,49,8.60
2006,10,17,05,50,8.60
2006,10,17,05,51,8.60
2006,10,17,05,52,8.60
2006,10,17,05,53,8.50
2006,10,17,05,54,8.50
2006,10,17,05,55,8.50
2006,10,17,05,56,8.50
2006,10,17,05,57,8.50
2006,10,17,05,58,8.40
2006,10,17,05,59,8.40
2006,10,17,06,00,8.40
2006,10,17,06,01,8.40
2006,10,17,06,02,8.40
2006,10,17,06,03,8.40
2006,10,17,06,04,8.40
2006,10,17,06,05,8.40
2006,10,17,06,06,8.40
2006,10,17,06,07,8.40
2006,10,17,06,08,8.50
2006,10,17,06,09,8.50
2006,10,17,06,10,8.50
2006,10,17,06,11,8.50
2006,10,17,06,12,8.50
2006,10,17,06,13,8.50
2006,10,17,06,14,8.50
2006,10,17,06,15,8.50
2006,10,17,06,16,8.50
2006,10,17,06,17,8.40
2006,10,17,06,18,8.40
2006,10,17,06,19,8.40
2006,10,17,06,20,8.40
2006,10,17,06,21,8.40
2006,10,17,06,22,8.30
2006,10,17,06,23,8.30
2006,10,17,06,24,8.30
2006,10,17,06,25,8.30
2006,10,17,06,26,8.30
2006,10,17,06,27,8.20
2006,10,17,06,28,8.20
2006,10,17,06,29,8.20
2006,10,17,06,30,8.20
2006,10,17,06,31,8.20
2006,10,17,06,32,8.30
2006,10,17,06,33,8.30
2006,10,17,06,34,8.40
2006,10,17,06,35,8.50
2006,10,17,06,36,8.60
2006,10,17,06,37,8.60
2006,10,17,06,38,8.60
2006,10,17,06,39,8.70
2006,10,17,06,40,8.70
2006,10,17,06,41,8.70
2006,10,17,06,42,8.70
2006,10,17,06,43,8.70
2006,10,17,06,44,8.70
2006,10,17,06,45,8.70
2006,10,17,06,46,8.70
2006,10,17,06,47,8.70
2006,10,17,06,48,8.70
2006,10,17,06,49,8.60
2006,10,17,06,50,8.60
2006,10,17,06,51,8.60
2006,10,17,06,52,8.60
2006,10,17,06,53,8.60
2006,10,17,06,54,8.60
2006,10,17,06,55,8.50
2006,10,17,06,56,8.50
2006,10,17,06,57,8.40
2006,10,17,06,58,8.40
2006,10,17,06,59,8.30
2006,10,17,07,00,8.30
2006,10,17,07,01,8.20
2006,10,17,07,02,8.20
2006,10,17,07,03,8.10
2006,10,17,07,04,8.10
2006,10,17,07,05,8.00
2006,10,17,07,06,8.00
2006,10,17,07,07,7.90
2006,10,17,07,08,7.90
2006,10,17,07,09,7.80
2006,10,17,07,10,7.80
2006,10,17,07,11,7.80
2006,10,17,07,12,7.70
2006,10,17,07,13,7.70
2006,10,17,07,14,7.70
2006,10,17,07,15,7.60
2006,10,17,07,16,7.60
2006,10,17,07,17,7.60
2006,10,17,07,18,7.50
2006,10,17,07,19,7.50
2006,10,17,07,20,7.40
2006,10,17,07,21,7.40
2006,10,17,07,22,7.30
2006,10,17,07,23,7.30
2006,10,17,07,24,7.30
2006,10,17,07,25,7.30
2006,10,17,07,26,7.20
2006,10,17,07,27,7.20
2006,10,17,07,28,7.20
2006,10,17,07,29,7.20
2006,10,17,07,30,7.20
2006,10,17,07,31,7.20
2006,10,17,07,32,7.20
2006,10,17,07,33,7.30
2006,10,17,07,34,7.30
2006,10,17,07,35,7.30
2006,10,17,07,36,7.30
2006,10,17,07,37,7.30
2006,10,17,07,38,7.30
2006,10,17,07,39,7.30
2006,10,17,07,40,7.40
2006,10,17,07,41,7.40
2006,10,17,07,42,7.40
2006,10,17,07,43,7.50
2006,10,17,07,44,7.50
2006,10,17,07,45,7.50
2006,10,17,07,46,7.50
2006,10,17,07,47,7.50
2006,10,17,07,48,7.50
2006,10,17,07,49,7.50
2006,10,17,07,50,7.50
2006,10,17,07,51,7.50
2006,10,17,07,52,7.50
2006,10,17,07,53,7.50
2006,10,17,07,54,7.40
2006,10,17,07,55,7.40
2006,10,17,07,56,7.40
2006,10,17,07,57,7.30
2006,10,17,07,58,7.30
2006,10,17,07,59,7.30
2006,10,17,08,00,7.20
2006,10,17,08,01,7.20
2006,10,17,08,02,7.20
2006,10,17,08,03,7.10
2006,10,17,08,04,7.10
2006,10,17,08,05,7.00
2006,10,17,08,06,7.00
2006,10,17,08,07,6.90
2006,10,17,08,08,6.90
2006,10,17,08,09,6.90
2006,10,17,08,10,6.90
2006,10,17,08,11,6.90
2006,10,17,08,12,6.90
2006,10,17,08,13,6.90
2006,10,17,08,14,6.90
2006,10,17,08,15,6.90
2006,10,17,08,16,7.00
2006,10,17,08,17,7.00
2006,10,17,08,18,7.00
2006,10,17,08,19,7.10
2006,10,17,08,20,7.10
2006,10,17,08,21,7.10
2006,10,17,08,22,7.10
2006,10,17,08,23,7.20
2006,10,17,08,24,7.20
2006,10,17,08,25,7.20
2006,10,17,08,26,7.30
2006,10,17,08,27,7.30
2006,10,17,08,28,7.40
2006,10,17,08,29,7.50
2006,10,17,08,30,7.60
2006,10,17,08,31,7.60
2006,10,17,08,32,7.70
2006,10,17,08,33,7.80
2006,10,17,08,34,7.90
2006,10,17,08,35,8.00
2006,10,17,08,36,8.20
2006,10,17,08,37,8.30
2006,10,17,08,38,8.40
2006,10,17,08,39,8.50
2006,10,17,08,40,8.60
2006,10,17,08,41,8.70
2006,10,17,08,42,8.80
2006,10,17,08,43,8.80
2006,10,17,08,44,8.90
2006,10,17,08,45,9.00
2006,10,17,08,46,9.10
2006,10,17,08,47,9.20
2006,10,17,08,48,9.30
2006,10,17,08,49,9.30
2006,10,17,08,50,9.40
2006,10,17,08,51,9.50
2006,10,17,08,52,9.60
2006,10,17,08,53,9.70
2006,10,17,08,54,9.80
2006,10,17,08,55,9.90
2006,10,17,08,56,10.00
2006,10,17,08,57,10.10
2006,10,17,08,58,10.20
2006,10,17,08,59,10.30
2006,10,17,09,00,10.40
2006,10,17,09,01,10.50
2006,10,17,09,02,10.60
2006,10,17,09,03,10.70
2006,10,17,09,04,10.80
2006,10,17,09,05,10.80
2006,10,17,09,06,10.90
2006,10,17,09,07,10.90
2006,10,17,09,08,10.90
2006,10,17,09,09,10.90
2006,10,17,09,10,11.00
2006,10,17,09,11,11.00
2006,10,17,09,12,11.10
2006,10,17,09,13,11.10
2006,10,17,09,14,11.10
2006,10,17,09,15,11.10
2006,10,17,09,16,11.20
2006,10,17,09,17,11.20
2006,10,17,09,18,11.20
2006,10,17,09,19,11.20
2006,10,17,09,20,11.30
2006,10,17,09,21,11.30
2006,10,17,09,22,11.30
2006,10,17,09,23,11.40
2006,10,17,09,24,11.40
2006,10,17,09,25,11.40
2006,10,17,09,26,11.50
2006,10,17,09,27,11.50
2006,10,17,09,28,11.60
2006,10,17,09,29,11.60
2006,10,17,09,30,11.60
2006,10,17,09,31,11.70
2006,10,17,09,32,11.70
2006,10,17,09,33,11.70
2006,10,17,09,48,12.10
2006,10,17,09,49,12.10
2006,10,17,09,50,12.00
2006,10,17,09,51,12.00
2006,10,17,09,52,12.00
2006,10,17,09,53,12.00
2006,10,17,09,54,12.00
2006,10,17,09,55,12.00
2006,10,17,09,56,12.10
2006,10,17,09,57,12.10
2006,10,17,09,58,12.10
2006,10,17,09,59,12.10
2006,10,17,10,00,12.20
2006,10,17,10,01,12.20
2006,10,17,10,02,12.20
2006,10,17,10,03,12.20
2006,10,17,10,04,12.20
2006,10,17,10,05,12.20
2006,10,17,10,06,12.20
2006,10,17,10,07,12.20
2006,10,17,10,08,12.20
2006,10,17,10,09,12.20
2006,10,17,10,10,12.20
2006,10,17,10,11,12.20
2006,10,17,10,12,12.20
2006,10,17,10,13,12.20
2006,10,17,10,14,12.30
2006,10,17,10,15,12.30
2006,10,17,10,16,12.30
2006,10,17,10,17,12.40
2006,10,17,10,18,12.40
2006,10,17,10,19,12.40
2006,10,17,10,20,12.40
2006,10,17,10,21,12.40
2006,10,17,10,22,12.40
2006,10,17,10,23,12.40
2006,10,17,10,24,12.40
2006,10,17,10,25,12.50
2006,10,17,10,26,12.40
2006,10,17,10,27,12.40
2006,10,17,10,28,12.40
2006,10,17,10,29,12.40
2006,10,17,10,30,12.40
2006,10,17,10,31,12.40
2006,10,17,10,32,12.50
2006,10,17,10,33,12.50
2006,10,17,10,34,12.60
2006,10,17,10,35,12.70
2006,10,17,10,36,12.80
2006,10,17,10,37,12.80
2006,10,17,10,38,12.90
2006,10,17,10,39,12.90
2006,10,17,10,40,12.90
2006,10,17,10,41,12.90
2006,10,17,10,42,12.90
2006,10,17,10,43,12.90
2006,10,17,10,44,12.90
2006,10,17,10,45,12.90
2006,10,17,10,46,12.90
2006,10,17,10,47,12.80
2006,10,17,10,48,12.70
2006,10,17,10,49,12.70
2006,10,17,10,50,12.70
2006,10,17,10,51,12.70
2006,10,17,10,52,12.70
2006,10,17,10,53,12.70
2006,10,17,10,54,12.70
2006,10,17,10,55,12.70
2006,10,17,10,56,12.80
2006,10,17,10,57,12.80
2006,10,17,10,58,12.90
2006,10,17,10,59,12.90
2006,10,17,11,00,13.00
2006,10,17,11,01,12.90
2006,10,17,11,02,12.90
2006,10,17,11,03,12.90
2006,10,17,11,04,12.90
2006,10,17,11,05,12.90
2006,10,17,11,06,12.90
2006,10,17,11,07,13.00
2006,10,17,11,08,13.00
2006,10,17,11,09,13.10
2006,10,17,11,10,13.10
2006,10,17,11,11,13.00
2006,10,17,11,12,13.10
2006,10,17,11,13,13.00
2006,10,17,11,14,13.00
2006,10,17,11,15,13.10
2006,10,17,11,16,13.20
2006,10,17,11,17,13.20
2006,10,17,11,18,13.30
2006,10,17,11,19,13.40
2006,10,17,11,20,13.40
2006,10,17,11,21,13.40
2006,10,17,11,22,13.30
2006,10,17,11,23,13.40
2006,10,17,11,24,13.40
2006,10,17,11,25,13.50
2006,10,17,11,26,13.50
2006,10,17,11,27,13.50
2006,10,17,11,28,13.50
2006,10,17,11,29,13.50
2006,10,17,11,30,13.60
2006,10,17,11,31,13.60
2006,10,17,11,32,13.60
2006,10,17,11,33,13.60
2006,10,17,11,34,13.60
2006,10,17,11,35,13.70
2006,10,17,11,36,13.80
2006,10,17,11,37,13.80
2006,10,17,11,38,13.80
2006,10,17,11,39,13.90
2006,10,17,11,40,13.90
2006,10,17,11,41,13.90
2006,10,17,11,42,13.80
2006,10,17,11,43,13.80
2006,10,17,11,44,13.90
2006,10,17,11,45,13.90
2006,10,17,11,46,14.00
2006,10,17,11,47,14.10
2006,10,17,11,48,14.20
2006,10,17,11,49,14.20
2006,10,17,11,50,14.20
2006,10,17,11,51,14.10
2006,10,17,11,52,14.10
2006,10,17,11,53,14.20
2006,10,17,11,54,14.20
2006,10,17,11,55,14.30
2006,10,17,11,56,14.40
2006,10,17,11,57,14.40
2006,10,17,11,58,14.50
2006,10,17,11,59,14.50
2006,10,17,12,00,14.50
2006,10,17,12,01,14.50
2006,10,17,12,02,14.60
2006,10,17,12,03,14.50
2006,10,17,12,04,14.40
2006,10,17,12,05,14.40
2006,10,17,12,06,14.40
2006,10,17,12,07,14.50
2006,10,17,12,08,14.50
2006,10,17,12,09,14.40
2006,10,17,12,10,14.40
2006,10,17,12,11,14.40
2006,10,17,12,12,14.40
2006,10,17,12,13,14.50
2006,10,17,12,14,14.50
2006,10,17,12,15,14.40
2006,10,17,12,16,14.30
2006,10,17,12,17,14.30
2006,10,17,12,18,14.30
2006,10,17,12,19,14.30
2006,10,17,12,20,14.50
2006,10,17,12,21,14.50
2006,10,17,12,22,14.50
2006,10,17,12,23,14.60
2006,10,17,12,24,14.60
2006,10,17,12,25,14.60
2006,10,17,12,26,14.50
2006,10,17,12,27,14.40
2006,10,17,12,28,14.40
2006,10,17,12,29,14.40
2006,10,17,12,30,14.40
2006,10,17,12,31,14.40
2006,10,17,12,32,14.40
2006,10,17,12,33,14.40
2006,10,17,12,34,14.50
2006,10,17,12,35,14.60
2006,10,17,12,36,14.70
2006,10,17,12,37,14.80
2006,10,17,12,38,14.90
2006,10,17,12,39,15.00
2006,10,17,12,40,15.00
2006,10,17,12,41,15.00
2006,10,17,12,42,15.00
2006,10,17,12,43,14.80
2006,10,17,12,44,14.80
2006,10,17,12,45,14.80
2006,10,17,12,46,14.80
2006,10,17,12,47,14.80
2006,10,17,12,48,14.80
2006,10,17,12,49,14.80
2006,10,17,12,50,14.90
2006,10,17,12,51,14.90
2006,10,17,12,52,14.90
2006,10,17,12,53,14.80
2006,10,17,12,54,14.90
2006,10,17,12,55,15.00
2006,10,17,12,56,15.00
2006,10,17,12,57,15.00
2006,10,17,12,58,15.00
2006,10,17,12,59,15.00
2006,10,17,13,00,15.00
2006,10,17,13,01,15.00
2006,10,17,13,02,14.90
2006,10,17,13,03,14.80
2006,10,17,13,04,14.80
2006,10,17,13,05,14.80
2006,10,17,13,06,14.80
2006,10,17,13,07,14.80
2006,10,17,13,08,14.80
2006,10,17,13,09,14.70
2006,10,17,13,10,14.70
2006,10,17,13,11,14.70
2006,10,17,13,12,14.70
2006,10,17,13,13,14.70
2006,10,17,13,14,14.80
2006,10,17,13,15,14.80
2006,10,17,13,16,14.80
2006,10,17,13,17,14.70
2006,10,17,13,18,14.80
2006,10,17,13,19,14.80
2006,10,17,13,20,14.80
2006,10,17,13,21,14.80
2006,10,17,13,22,14.80
2006,10,17,13,23,14.80
2006,10,17,13,24,14.70
2006,10,17,13,25,14.70
2006,10,17,13,26,14.70
2006,10,17,13,27,14.70
2006,10,17,13,28,14.80
2006,10,17,13,29,14.90
2006,10,17,13,30,15.00
2006,10,17,13,31,15.00
2006,10,17,13,32,15.00
2006,10,17,13,33,15.00
2006,10,17,13,34,15.00
2006,10,17,13,35,15.00
2006,10,17,13,36,15.00
2006,10,17,13,37,15.00
2006,10,17,13,38,14.90
2006,10,17,13,39,14.90
2006,10,17,13,40,15.00
2006,10,17,13,41,15.00
2006,10,17,13,42,15.10
2006,10,17,13,43,15.30
2006,10,17,13,44,15.30
2006,10,17,13,45,15.30
2006,10,17,13,46,15.20
2006,10,17,13,47,15.30
2006,10,17,13,48,15.30
2006,10,17,13,49,15.30
2006,10,17,13,50,15.40
2006,10,17,13,51,15.40
2006,10,17,13,52,15.30
2006,10,17,13,53,15.30
2006,10,17,13,54,15.30
2006,10,17,13,55,15.40
2006,10,17,13,56,15.40
2006,10,17,13,57,15.30
2006,10,17,13,58,15.30
2006,10,17,13,59,15.30
2006,10,17,14,00,15.30
2006,10,17,14,01,15.30
2006,10,17,14,02,15.30
2006,10,17,14,03,15.40
2006,10,17,14,04,15.40
2006,10,17,14,05,15.40
2006,10,17,14,06,15.40
2006,10,17,14,07,15.40
2006,10,17,14,08,15.40
2006,10,17,14,09,15.40
2006,10,17,14,10,15.40
2006,10,17,14,11,15.40
2006,10,17,14,12,15.40
2006,10,17,14,13,15.50
2006,10,17,14,14,15.50
2006,10,17,14,15,15.50
2006,10,17,14,16,15.60
2006,10,17,14,17,15.70
2006,10,17,14,18,15.70
2006,10,17,14,19,15.80
2006,10,17,14,20,15.80
2006,10,17,14,21,15.70
2006,10,17,14,22,15.60
2006,10,17,14,23,15.60
2006,10,17,14,24,15.60
2006,10,17,14,25,15.70
2006,10,17,14,26,15.80
2006,10,17,14,27,15.80
2006,10,17,14,28,15.90
2006,10,17,14,29,15.90
2006,10,17,14,30,15.90
2006,10,17,14,31,15.90
2006,10,17,14,32,15.80
2006,10,17,14,33,15.80
2006,10,17,14,34,15.80
2006,10,17,14,35,15.80
2006,10,17,14,36,15.90
2006,10,17,14,37,15.90
2006,10,17,14,38,15.90
2006,10,17,14,39,15.90
2006,10,17,14,40,15.90
2006,10,17,14,41,16.00
2006,10,17,14,42,16.00
2006,10,17,14,43,15.90
2006,10,17,14,44,16.00
2006,10,17,14,45,16.00
2006,10,17,14,46,16.10
2006,10,17,14,47,16.10
2006,10,17,14,48,16.10
2006,10,17,14,49,16.10
2006,10,17,14,50,16.10
2006,10,17,14,51,16.20
2006,10,17,14,52,16.10
2006,10,17,14,53,16.00
2006,10,17,14,54,15.90
2006,10,17,14,55,15.70
2006,10,17,14,56,15.70
2006,10,17,14,57,15.70
2006,10,17,14,58,15.60
2006,10,17,14,59,15.70
2006,10,17,15,00,15.70
2006,10,17,15,01,15.50
2006,10,17,15,02,15.50
2006,10,17,15,03,15.40
2006,10,17,15,04,15.40
2006,10,17,15,05,15.40
2006,10,17,15,06,15.40
2006,10,17,15,07,15.40
2006,10,17,15,08,15.50
2006,10,17,15,09,15.50
2006,10,17,15,10,15.60
2006,10,17,15,11,15.60
2006,10,17,15,12,15.50
2006,10,17,15,13,15.50
2006,10,17,15,14,15.40
2006,10,17,15,15,15.20
2006,10,17,15,16,15.00
2006,10,17,15,17,15.00
2006,10,17,15,18,15.00
2006,10,17,15,19,15.00
2006,10,17,15,20,15.00
2006,10,17,15,21,14.90
2006,10,17,15,22,14.70
2006,10,17,15,23,14.60
2006,10,17,15,24,14.50
2006,10,17,15,25,14.30
2006,10,17,15,26,14.30
2006,10,17,15,27,14.30
2006,10,17,15,28,14.30
2006,10,17,15,29,14.30
2006,10,17,15,30,14.20
2006,10,17,15,31,14.00
2006,10,17,15,32,14.00
2006,10,17,15,33,13.90
2006,10,17,15,34,13.90
2006,10,17,15,35,13.90
2006,10,17,15,36,13.90
2006,10,17,15,37,13.90
2006,10,17,15,38,13.80
2006,10,17,15,39,13.80
2006,10,17,15,40,13.80
2006,10,17,15,41,13.80
2006,10,17,15,42,13.80
2006,10,17,15,43,13.90
2006,10,17,15,44,13.90
2006,10,17,15,45,13.90
2006,10,17,15,46,13.90
2006,10,17,15,47,13.90
2006,10,17,15,48,14.00
2006,10,17,15,49,14.00
2006,10,17,15,50,14.00
2006,10,17,15,51,14.00
2006,10,17,15,52,13.90
2006,10,17,15,53,13.90
2006,10,17,15,54,13.80
2006,10,17,15,55,13.80
2006,10,17,15,56,13.80
2006,10,17,15,57,13.80
2006,10,17,15,58,13.80
2006,10,17,15,59,13.80
2006,10,17,16,00,13.80
2006,10,17,16,01,13.90
2006,10,17,16,02,13.90
2006,10,17,16,03,13.80
2006,10,17,16,04,13.80
2006,10,17,16,05,13.80
2006,10,17,16,06,13.80
2006,10,17,16,07,13.80
2006,10,17,16,08,13.80
2006,10,17,16,09,13.80
2006,10,17,16,10,13.70
2006,10,17,16,11,13.70
2006,10,17,16,12,13.60
2006,10,17,16,13,13.50
2006,10,17,16,14,13.40
2006,10,17,16,15,13.40
2006,10,17,16,16,13.40
2006,10,17,16,17,13.30
2006,10,17,16,18,13.20
2006,10,17,16,19,13.10
2006,10,17,16,20,13.00
2006,10,17,16,21,12.90
2006,10,17,16,22,12.90
2006,10,17,16,23,12.90
2006,10,17,16,24,12.90
2006,10,17,16,25,12.80
2006,10,17,16,26,12.80
2006,10,17,16,27,12.80
2006,10,17,16,28,12.80
2006,10,17,16,29,12.80
2006,10,17,16,30,12.80
2006,10,17,16,31,12.70
2006,10,17,16,32,12.70
2006,10,17,16,33,12.70
2006,10,17,16,34,12.60
2006,10,17,16,35,12.60
2006,10,17,16,36,12.60
2006,10,17,16,37,12.60
2006,10,17,16,38,12.50
2006,10,17,16,39,12.40
2006,10,17,16,40,12.40
2006,10,17,16,41,12.30
2006,10,17,16,42,12.30
2006,10,17,16,43,12.30
2006,10,17,16,44,12.30
2006,10,17,16,45,12.30
2006,10,17,16,46,12.30
2006,10,17,16,47,12.30
2006,10,17,16,48,12.30
2006,10,17,16,49,12.30
2006,10,17,16,50,12.20
2006,10,17,16,51,12.20
2006,10,17,16,52,12.20
2006,10,17,16,53,12.20
2006,10,17,16,54,12.20
2006,10,17,16,55,12.20
2006,10,17,16,56,12.10
2006,10,17,16,57,12.10
2006,10,17,16,58,12.10
2006,10,17,16,59,12.10
2006,10,17,17,00,12.10
2006,10,17,17,01,12.10
2006,10,17,17,02,12.10
2006,10,17,17,03,12.10
2006,10,17,17,04,12.10
2006,10,17,17,05,12.10
2006,10,17,17,06,12.10
2006,10,17,17,07,12.10
2006,10,17,17,08,12.00
2006,10,17,17,09,12.00
2006,10,17,17,10,11.90
2006,10,17,17,11,11.90
2006,10,17,17,12,11.80
2006,10,17,17,13,11.80
2006,10,17,17,14,11.80
2006,10,17,17,15,11.80
2006,10,17,17,16,11.80
2006,10,17,17,17,11.80
2006,10,17,17,18,11.70
2006,10,17,17,19,11.70
2006,10,17,17,20,11.70
2006,10,17,17,21,11.70
2006,10,17,17,22,11.70
2006,10,17,17,23,11.70
2006,10,17,17,24,11.70
2006,10,17,17,25,11.60
2006,10,17,17,26,11.60
2006,10,17,17,27,11.60
2006,10,17,17,28,11.60
2006,10,17,17,29,11.60
2006,10,17,17,30,11.60
2006,10,17,17,31,11.60
2006,10,17,17,32,11.50
2006,10,17,17,33,11.50
2006,10,17,17,34,11.50
2006,10,17,17,35,11.50
2006,10,17,17,36,11.50
2006,10,17,17,37,11.50
2006,10,17,17,38,11.40
2006,10,17,17,39,11.40
2006,10,17,17,40,11.40
2006,10,17,17,41,11.40
2006,10,17,17,42,11.40
2006,10,17,17,43,11.30
2006,10,17,17,44,11.30
2006,10,17,17,45,11.30
2006,10,17,17,46,11.30
2006,10,17,17,47,11.30
2006,10,17,17,48,11.30
2006,10,17,17,49,11.30
2006,10,17,17,50,11.30
2006,10,17,17,51,11.30
2006,10,17,17,52,11.20
2006,10,17,17,53,11.20
2006,10,17,17,54,11.20
2006,10,17,17,55,11.20
2006,10,17,17,56,11.20